Theta_e
313 313 313 313 313 315 314 316 310 319 316 313 313 316 320 322 318 320 321 320 319 318 320 321 320 320 319 317 319 316 316 312 312 317 315 316 316 317 313 309 317 308 307 313
313 314 314 313 313 314 316 317 325 325 319 308 304 315 322 319 318 319 320 320 320 319 320 320 320 319 317 314 315 317 315 312 313 318 317 314 318 317 314 310 307 314 307 309
314 315 314 314 313 314 317 319 315 322 320 313 311 317 319 320 320 320 320 319 319 319 320 318 320 320 318 314 315 316 316 314 312 315 316 313 314 315 315 312 309 311 309 312
314 315 315 314 313 314 319 321 313 318 310 314 320 319 319 320 320 320 319 319 320 319 321 320 320 319 317 315 316 316 312 313 314 313 313 314 314 314 314 315 313 313 313 312
314 316 317 315 313 315 321 323 316 313 310 315 318 317 321 319 320 319 320 318 320 318 316 317 319 316 315 316 317 316 309 311 309 315 313 313 313 311 310 311 312 313 314 315
314 316 318 314 313 316 320 322 323 314 312 312 315 314 319 319 318 319 319 318 316 315 317 317 317 316 316 316 316 311 307 305 304 306 308 309 306 310 313 313 314 312 313 312
312 316 317 314 313 314 318 322 323 320 309 308 312 319 319 319 318 319 318 318 315 315 317 317 317 317 316 315 313 310 307 304 299 303 301 304 309 310 312 313 314 312 311 310
311 315 317 314 313 315 319 322 324 321 307 313 318 319 318 318 319 318 318 318 317 316 314 307 310 305 307 307 312 310 307 301 305 302 304 305 309 313 314 313 313 311 310 309
311 316 317 316 314 315 320 321 323 319 320 316 320 318 318 311 313 312 318 316 316 316 303 303 305 307 309 312 316 309 305 299 302 303 300 301 305 312 313 312 310 313 311 309
311 316 316 317 317 317 320 320 322 320 321 322 320 317 317 317 314 310 318 319 318 314 298 300 308 310 308 312 310 306 303 298 300 298 298 304 304 312 312 312 309 313 313 312
310 315 316 316 317 318 316 321 320 321 321 322 321 320 320 319 318 312 318 315 316 305 303 301 303 304 307 308 309 309 309 306 302 303 302 308 308 310 311 311 311 314 314 313
309 312 316 317 317 316 316 318 321 321 321 320 321 321 320 319 319 319 319 316 315 314 304 301 304 306 306 302 309 309 309 306 307 307 308 308 310 313 314 313 313 314 314 313
308 310 313 317 318 316 316 320 320 318 320 319 320 321 321 319 319 319 318 315 317 315 313 309 303 303 301 307 308 308 309 309 306 309 311 310 311 312 312 314 314 314 315 314
307 308 310 314 318 319 317 319 318 317 317 316 319 320 321 321 320 319 318 317 317 316 314 308 303 301 307 302 305 305 308 310 310 307 309 312 315 315 314 314 315 315 314 313
308 308 308 310 314 318 318 317 317 316 315 314 319 318 317 320 321 321 321 319 318 318 314 304 304 306 305 304 302 305 310 309 307 308 311 313 313 314 314 314 314 314 312 310
308 308 308 308 310 312 314 314 318 318 316 316 310 317 318 317 317 319 320 320 320 319 318 313 312 311 311 307 311 312 314 313 313 312 313 313 313 314 314 314 314 312 311 310
308 308 308 308 308 309 310 311 314 317 318 316 312 312 318 318 319 318 319 319 319 319 317 313 313 315 313 305 309 313 313 313 313 313 314 314 314 314 314 313 312 310 309 303
309 308 308 308 308 309 312 315 314 316 316 316 306 305 314 317 319 319 318 319 318 317 315 312 311 311 307 308 311 315 315 315 314 314 314 313 313 313 312 311 309 304 300 299
310 310 310 310 310 311 313 315 317 316 315 314 307 307 309 315 313 314 314 315 306 310 311 309 311 304 310 311 313 314 314 314 314 313 313 313 313 310 304 300 299 303 297 298
310 311 310 311 312 312 314 314 313 315 316 315 306 308 308 311 310 308 309 308 308 310 308 311 305 309 310 312 310 310 311 313 313 312 309 308 302 298 297 300 300 298 297 298
310 310 310 312 313 312 312 311 307 309 310 311 309 309 307 309 307 307 308 304 302 309 305 309 308 306 304 306 307 309 310 311 310 310 308 303 302 302 300 297 299 300 296 292
310 311 311 312 312 311 305 305 306 305 307 307 309 309 310 309 310 307 306 306 303 308 304 306 307 300 299 300 301 302 303 305 303 303 302 300 298 298 299 298 293 291 290 290
310 311 311 310 306 307 310 311 306 306 303 304 306 306 307 308 309 305 303 306 307 303 305 307 303 299 299 300 302 302 303 302 301 299 298 298 295 293 292 291 291 291 291 290
308 306 304 303 303 301 301 302 301 300 301 303 304 302 304 303 303 301 305 302 301 306 303 299 301 299 300 301 301 300 300 301 297 293 293 293 293 292 291 291 291 290 290 290
302 301 300 298 297 298 298 299 300 300 300 302 302 302 302 300 301 300 300 302 303 301 300 300 299 299 299 297 296 297 295 295 294 294 294 294 293 291 291 291 291 291 291 291
298 298 298 298 299 298 299 299 299 300 300 300 301 300 301 301 300 299 298 299 300 301 299 299 299 299 299 298 296 298 295 295 295 295 294 292 291 291 291 291 291 292 292 292
298 297 298 299 299 299 299 300 300 300 300 300 300 298 297 298 298 300 301 301 300 300 300 300 300 299 297 296 295 294 294 293 292 292 292 292 292 292 292 292 291 291 291 291
Wind_Speed
26 24 26 29 29 29 27 20 2 16 14 4 1 3 4 5 2 6 4 4 3 5 4 4 3 4 0 4 1 2 1 5 3 1 5 3 1 2 4 4 3 1 3 5
25 23 27 30 31 32 29 15 5 15 17 4 2 4 4 1 1 3 2 3 2 2 5 6 2 3 0 3 3 3 2 2 3 6 6 5 2 3 5 6 3 4 5 5
23 23 27 30 33 34 28 13 2 4 8 4 7 3 4 1 4 3 3 3 5 5 5 6 4 3 1 3 5 5 3 3 5 6 4 3 3 2 3 4 3 3 5 4
22 23 27 31 36 37 23 9 5 9 3 3 4 5 2 3 2 1 3 4 3 5 4 3 4 2 2 4 3 4 4 3 1 3 4 2 1 3 5 6 4 5 6 7
21 23 27 32 38 37 20 8 5 6 7 20 6 3 5 7 2 3 1 6 2 2 6 6 8 6 2 3 6 4 4 3 1 1 6 6 3 5 6 5 4 6 3 4
20 21 25 31 37 36 18 8 5 8 2 5 5 5 6 8 6 6 1 11 5 5 2 8 12 8 10 7 5 3 4 5 3 3 4 5 6 7 6 4 3 6 6 7
20 20 23 29 35 37 21 9 6 6 2 3 6 6 3 6 5 7 4 8 6 14 31 28 24 26 23 21 14 5 5 4 3 2 3 2 6 4 6 4 1 3 3 9
20 19 23 27 33 32 20 10 7 7 2 3 4 8 7 14 15 6 4 2 11 24 6 5 5 5 6 5 6 6 4 5 3 4 3 5 6 5 6 6 7 5 8 8
19 19 23 26 27 27 17 14 7 4 15 4 12 7 10 5 4 5 5 18 28 4 6 4 4 4 4 2 1 5 5 6 4 2 4 6 6 3 6 5 5 18 17 17
19 19 21 24 29 28 21 12 8 6 7 6 14 5 9 11 7 4 4 5 3 3 3 3 3 3 3 4 5 3 2 3 4 3 3 8 7 5 4 5 7 23 27 27
18 19 19 21 28 21 18 13 11 8 6 8 10 11 15 12 10 5 10 5 1 4 4 3 4 3 5 2 4 5 7 6 4 3 1 8 11 5 7 6 7 20 28 28
17 18 18 19 21 20 17 17 12 9 7 7 12 11 13 14 13 15 17 6 6 7 4 1 3 2 2 2 3 2 3 7 5 9 6 4 18 8 21 9 9 18 24 25
16 16 16 16 17 17 15 17 15 11 18 11 9 10 10 11 10 9 9 6 8 7 6 8 3 3 4 4 6 1 4 7 3 2 5 15 17 22 21 15 16 14 19 20
15 15 15 15 15 14 13 15 14 9 10 5 3 9 9 7 10 9 6 5 13 12 9 5 3 3 9 3 3 4 4 8 4 5 10 12 15 19 22 23 19 15 17 17
13 13 13 13 13 13 12 12 12 10 4 5 7 9 6 5 4 4 4 6 13 10 5 3 3 5 4 2 1 3 9 7 4 7 17 12 14 14 17 22 24 19 20 18
12 12 12 12 12 13 13 5 7 8 9 4 2 4 6 6 6 7 9 11 10 8 6 4 5 6 7 4 4 13 18 22 24 21 27 20 21 18 17 24 20 19 17 18
11 11 10 10 11 12 5 5 8 10 8 4 4 1 4 9 9 8 10 11 7 7 5 7 5 7 9 4 4 23 24 24 23 23 21 19 22 14 17 20 18 18 19 19
11 10 10 10 10 10 8 7 8 11 6 4 4 2 1 7 4 5 5 5 6 3 3 3 3 5 3 3 19 26 25 24 26 28 26 23 17 13 20 19 19 23 23 17
12 12 12 11 7 5 8 7 6 9 4 6 3 5 4 6 3 3 3 3 2 2 4 3 5 2 5 8 12 15 15 14 18 17 16 15 13 16 19 24 20 15 14 5
13 14 5 4 7 10 10 4 2 3 2 2 3 4 2 3 3 2 2 2 1 1 3 4 2 3 12 17 15 19 21 15 14 10 11 16 20 24 25 17 11 9 6 7
10 4 4 13 14 5 3 3 4 3 2 2 2 1 2 3 3 2 3 2 0 2 4 3 2 3 5 18 15 11 6 8 8 9 11 17 20 17 15 13 3 6 7 8
7 11 15 9 2 3 5 2 2 2 2 1 2 2 3 2 3 4 3 2 1 5 3 1 3 2 8 8 11 11 10 11 17 17 22 21 21 15 7 4 5 7 8 10
13 4 3 2 4 3 4 5 1 2 2 1 2 1 1 3 3 4 2 4 4 4 2 3 1 6 12 18 21 22 16 13 17 21 20 14 10 5 0 3 6 8 9 10
4 3 3 1 1 2 2 1 2 3 2 3 3 4 2 1 2 2 2 0 1 2 2 2 2 4 7 10 10 14 13 12 16 15 10 6 5 5 6 8 8 9 9 11
5 3 3 2 3 3 2 2 3 3 3 3 3 4 1 2 2 1 1 1 1 1 1 1 5 7 8 9 7 9 11 11 8 5 4 6 7 8 8 10 11 12 12 12
4 4 4 5 4 2 3 5 4 3 3 4 3 2 2 1 1 2 3 3 1 1 1 6 7 6 5 8 7 5 5 4 3 6 9 11 12 13 12 12 11 10 12 13
3 3 7 5 7 5 4 5 5 5 2 1 2 3 3 1 1 1 1 1 2 3 5 4 1 3 6 6 5 6 7 8 8 8 9 10 11 11 12 13 14 14 16 19
Wind_Direction
191 189 187 185 182 177 172 169 115 175 177 107 44 182 209 314 292 44 57 95 93 147 107 80 95 134 84 340 295 75 22 121 101 211 294 296 189 129 110 107 219 51 145 276
188 187 185 183 181 176 169 166 124 170 176 146 279 274 280 266 349 34 55 73 90 112 121 98 101 109 143 25 74 139 170 19 63 353 350 348 101 63 91 102 91 194 130 264
184 184 183 181 180 175 171 164 103 138 179 166 154 173 269 174 44 60 87 109 83 74 58 30 137 130 26 62 96 91 100 88 149 182 198 186 143 125 125 116 118 186 220 192
179 178 179 179 179 175 174 178 195 161 204 232 165 151 294 146 122 83 72 33 64 128 107 74 109 131 127 56 75 58 79 117 69 61 29 15 278 170 186 193 185 167 250 203
173 173 179 180 179 178 180 167 156 156 168 174 150 131 209 176 173 132 86 110 42 110 147 177 191 143 159 180 36 67 13 154 340 113 4 3 284 245 245 234 209 258 151 245
166 171 177 181 181 179 183 193 172 169 130 118 114 205 203 202 138 33 86 145 101 43 336 111 103 102 103 116 124 104 70 125 81 253 341 333 335 218 195 193 192 151 185 213
163 168 173 177 182 183 190 197 184 152 226 137 180 177 162 167 178 141 120 120 95 131 110 97 85 75 70 66 49 93 122 93 77 182 16 22 244 299 237 188 251 187 109 159
159 161 166 172 180 182 197 212 207 183 125 169 82 123 119 100 88 72 76 69 136 140 107 63 47 352 21 357 34 26 90 116 98 137 190 295 304 185 152 175 251 195 154 156
154 154 159 168 173 177 199 231 198 154 124 244 150 128 153 137 110 26 75 118 150 147 77 71 130 197 204 270 53 45 54 70 108 120 144 211 243 257 160 113 294 187 177 176
151 151 154 160 164 177 201 199 161 140 104 136 165 152 161 137 104 109 138 157 128 98 72 84 147 228 181 182 178 200 41 13 153 150 230 286 238 192 125 111 235 179 193 196
150 147 148 156 173 190 191 175 162 153 112 135 173 155 154 153 146 135 156 84 346 52 70 121 194 169 221 127 187 182 171 152 196 108 75 277 187 143 167 207 178 188 200 207
152 145 145 150 160 169 179 172 167 155 127 124 137 153 180 181 179 149 163 166 160 157 92 138 125 165 174 154 232 110 241 188 185 186 214 263 190 226 212 213 222 207 212 207
149 148 149 151 155 163 170 160 148 145 121 108 113 114 136 159 166 171 147 184 165 167 140 145 151 169 128 170 236 204 244 179 206 93 249 242 245 243 252 240 237 246 217 205
151 146 147 153 155 158 161 157 149 143 128 112 114 126 124 140 171 183 181 187 180 165 161 118 135 155 197 212 207 176 202 151 200 258 275 273 263 250 249 245 242 224 204 206
153 150 149 150 154 156 157 163 156 156 138 135 131 139 131 148 161 183 196 208 195 169 140 115 208 167 129 117 76 258 187 197 168 235 250 238 256 251 264 242 233 218 197 196
159 157 156 156 156 157 152 123 154 151 136 113 113 161 165 177 183 184 175 185 196 192 181 179 201 195 179 166 213 251 242 243 251 253 273 271 264 271 259 235 218 202 209 216
164 164 163 162 163 165 160 152 161 167 158 123 79 37 174 190 184 178 184 197 205 214 191 197 194 185 187 158 220 258 260 262 264 265 264 265 268 262 221 203 203 208 207 178
160 158 156 161 159 153 140 128 151 167 151 132 115 270 165 191 190 187 202 204 204 200 199 187 188 147 140 236 245 265 271 273 269 266 268 267 275 217 195 210 207 176 156 159
151 143 141 143 159 143 152 149 161 174 153 142 120 146 218 175 159 158 157 197 34 259 205 231 156 204 219 235 273 289 290 278 284 285 261 244 221 190 175 165 147 146 147 139
145 143 120 120 135 137 144 143 164 169 141 101 107 139 141 149 150 68 120 58 202 231 237 180 179 253 271 293 312 295 283 283 270 231 176 174 159 154 148 144 121 136 149 245
134 118 85 128 130 119 140 84 67 46 55 32 83 154 136 146 122 175 185 166 213 244 244 187 238 276 310 327 322 323 291 250 228 223 196 167 154 141 115 108 131 249 250 271
112 109 118 120 97 71 87 92 70 92 182 100 125 121 119 137 155 108 161 170 93 246 143 158 255 321 24 73 77 88 108 125 120 126 120 112 101 100 117 179 220 262 291 304
125 84 88 52 9 70 154 170 204 110 27 72 142 87 171 144 182 84 113 188 224 135 189 225 59 70 76 93 94 88 74 66 85 79 74 88 109 113 106 291 302 306 303 297
84 68 78 39 72 45 75 67 83 83 66 88 102 79 63 72 94 110 201 216 93 207 226 253 21 94 97 92 81 88 89 54 88 100 99 79 36 1 334 317 318 320 317 316
86 64 76 64 107 89 94 105 96 89 94 84 91 82 103 25 96 72 79 52 265 180 252 12 112 81 87 84 72 89 95 99 91 77 22 355 348 349 349 346 340 331 323 319
71 79 106 139 121 101 91 102 95 101 128 112 88 99 83 95 141 100 222 135 198 97 35 94 99 75 78 108 117 49 26 50 19 349 344 341 339 343 342 337 331 324 320 316
69 79 109 113 99 122 114 105 99 99 96 91 96 93 193 62 42 307 11 129 94 103 102 134 121 25 35 72 55 8 343 333 333 338 344 345 341 341 338 332 330 317 313 310